[[{"header":{"parameterUnit":"m.s-1","parameterCategory":1,"la1":30.2991,"la2":30.254,"lo1":-89.0895,"lo2":-89.0444,"dy":0.0017,"dx":0.0017,"nx":28,"ny":28,"refTime":"2024-08-20T03:00:00:Z","depth":0,"parameterNumber":2,"parameterNumberName":"U-component_of_WINDS"},"data":[0,0,0,0,0,0,0,0,0,0,0,0,0,0,0,0,0,0,0,0,0,0,0,0,0,0,0,0,0,0,0,0,0,0,0,0,0,0,0,0,0,0,0,0,0,0,0,0,0,0,0,0,0,0,0,0,0,0,-0.5567,-0.5566,0,-0.5422,-0.5421,-0.5419,-0.5293,-0.5291,-0.529,-0.5289,-0.5135,-0.5133,-0.513,0,0,0,0,0,0,0,0,0,0,0,0,0,-0.5729,-0.5727,-0.5567,-0.5566,-0.5564,-0.5423,-0.542,-0.5418,-0.5293,-0.5291,-0.529,-0.5288,-0.5136,-0.5133,-0.513,0,0,0,0,0,0,0,0,0,0,0,0,0,-0.5629,-0.5726,-0.5568,-0.5484,-0.5475,-0.5423,-0.542,-0.5418,-0.5293,-0.5291,-0.5289,-0.5287,-0.5137,-0.5133,-0.5129,-0.5146,0,0,-0.5117,-0.5115,0,0,0,0,0,0,0,0,-0.5635,-0.5623,-0.5498,-0.549,-0.548,-0.5374,-0.5421,-0.5327,-0.5294,-0.5362,-0.5289,-0.5286,-0.5216,-0.5205,-0.5183,-0.5139,-0.5132,-0.5116,-0.5114,-0.5112,-0.5111,0,0,0,0,0,0,0,-0.5642,-0.5629,-0.551,-0.5497,-0.5485,-0.5452,-0.5435,-0.5403,-0.5303,-0.5356,-0.5347,-0.5332,-0.521,-0.5187,-0.5178,-0.513,-0.5116,-0.5113,-0.511,-0.5108,-0.509,-0.5092,0,0,0,0,0,0,-0.5663,-0.5636,-0.5514,-0.5505,-0.5554,-0.5451,-0.5432,-0.541,-0.5303,-0.5285,-0.5334,-0.5326,-0.5195,-0.5183,-0.5172,-0.5183,-0.5112,-0.5108,-0.5106,-0.5088,-0.509,-0.5092,0,0,0,0,0,0,-0.5667,-0.5653,-0.552,-0.5568,-0.5548,-0.545,-0.5426,-0.5408,-0.5384,-0.5286,-0.5267,-0.5328,-0.5193,-0.5178,-0.5153,-0.5176,-0.5106,-0.5102,-0.5085,-0.5088,-0.5091,-0.5206,0,0,0,0,0,0,-0.5672,-0.5655,-0.5663,-0.5569,-0.5546,-0.5506,-0.5427,-0.5407,-0.5378,-0.5367,-0.5276,-0.5258,-0.519,-0.516,-0.5149,-0.5169,-0.5099,-0.5083,-0.5087,-0.509,-0.52,-0.5213,-0.5224,0,0,0,0,0,-0.5678,-0.57,-0.5664,-0.565,-0.5554,-0.5508,-0.5494,-0.5417,-0.5381,-0.5386,-0.5322,-0.5261,-0.5176,-0.5159,-0.5145,-0.5164,-0.5081,-0.5086,-0.509,-0.5195,-0.521,-0.5224,0,0,0,0,0,0,-0.5798,-0.5687,-0.5645,-0.5638,-0.5583,-0.5487,-0.5491,-0.5436,-0.539,-0.5382,-0.5285,-0.5266,-0.5251,-0.5205,-0.5188,-0.5173,-0.512,-0.5122,-0.5204,-0.5218,-0.523,-0.5241,-0.5096,0,0,0,0,0,-0.5824,-0.5798,-0.5701,-0.5704,-0.5679,-0.559,-0.5567,-0.5512,-0.5451,-0.5427,-0.5361,-0.5303,-0.5262,-0.5238,-0.5195,-0.5193,-0.5169,-0.5199,-0.5211,-0.5221,-0.5224,-0.5216,-0.5227,-0.5107,-0.5107,-0.5107,0,0,-0.5876,-0.5812,-0.5802,-0.5726,-0.5678,-0.5651,-0.5572,-0.5547,-0.5525,-0.5422,-0.5395,-0.5345,-0.5273,-0.5259,-0.525,-0.522,-0.5252,-0.5227,-0.5236,-0.5232,-0.5222,-0.5233,-0.5244,-0.511,-0.5109,-0.5109,0,0,-0.5958,-0.5909,-0.5904,-0.5857,-0.5785,-0.5725,-0.5725,-0.5635,-0.5599,-0.557,-0.5492,-0.5463,-0.5396,-0.5347,-0.5314,-0.5376,-0.5317,-0.5364,-0.5426,-0.542,-0.543,-0.5437,-0.5457,-0.5466,-0.5367,-0.5368,-0.5368,0,-0.6033,-0.5991,-0.5909,-0.5888,-0.5857,-0.5764,-0.5757,-0.5715,-0.5632,-0.5611,-0.5579,-0.5492,-0.5437,-0.5409,-0.5424,-0.5401,-0.5395,-0.5374,-0.5435,-0.5442,-0.5448,-0.5466,-0.5474,-0.5374,-0.5373,-0.5372,-0.5372,0,-0.6084,-0.6056,-0.6061,-0.5985,-0.5953,-0.594,-0.5854,-0.5832,-0.5779,-0.5722,-0.5692,-0.5623,-0.5563,-0.5553,-0.5501,-0.5517,-0.55,-0.5454,-0.5398,-0.5467,-0.5482,-0.5489,-0.5382,-0.538,-0.5378,-0.5377,0,0,-0.6238,-0.6116,-0.6119,-0.6082,-0.5995,-0.597,-0.5951,-0.5895,-0.5876,-0.5822,-0.5802,-0.5746,-0.5702,-0.5664,-0.5605,-0.56,-0.565,-0.5553,-0.5549,-0.5572,-0.5661,-0.5696,-0.5705,-0.5611,-0.5612,-0.5613,-0.5666,0,-0.6305,-0.6268,-0.6193,-0.6179,-0.6151,-0.6061,-0.6044,-0.5987,-0.5933,-0.5899,-0.5838,-0.5799,-0.5745,-0.5721,-0.5712,-0.5647,-0.5667,-0.5641,-0.5589,-0.5589,-0.561,-0.5713,-0.5751,-0.5805,-0.5672,-0.5673,-0.5673,0,-0.6378,-0.633,-0.6314,-0.6226,-0.6211,-0.6198,-0.6138,-0.6108,-0.604,-0.6001,-0.5958,-0.5893,-0.5866,-0.5816,-0.5775,-0.576,-0.5733,-0.5698,-0.5698,-0.5689,-0.5635,-0.5706,-0.582,-0.5828,-0.5682,-0.5681,-0.5681,0,-0.649,-0.6421,-0.6401,-0.6373,-0.6271,-0.6263,-0.622,-0.615,-0.612,-0.6067,-0.6046,-0.5991,-0.596,-0.5918,-0.5838,-0.581,-0.5806,-0.5749,-0.577,-0.5772,-0.5773,-0.5773,-0.5883,-0.5758,-0.5758,-0.5758,-0.5758,0,-0.6571,-0.6565,-0.645,-0.6438,-0.6427,-0.6339,-0.633,-0.6277,-0.6216,-0.619,-0.6109,-0.6086,-0.5984,-0.5948,-0.5886,-0.586,-0.5847,-0.5812,-0.5796,-0.5819,-0.5823,-0.58,-0.5794,-0.576,-0.576,-0.5759,-0.5759,0,-0.6695,-0.6618,-0.6591,-0.6496,-0.6472,-0.6468,-0.6385,-0.6369,-0.6309,-0.6278,-0.6265,-0.6171,-0.6125,-0.6042,-0.5972,-0.5929,-0.5916,-0.5888,-0.5939,-0.5929,-0.5954,-0.5952,-0.605,-0.6058,-0.5931,-0.5933,-0.5934,0,-0.6751,-0.6744,-0.6649,-0.6626,-0.6587,-0.6552,-0.6521,-0.6433,-0.6404,-0.6326,-0.6318,-0.6266,-0.6219,-0.6149,-0.6072,-0.6017,-0.5986,-0.6025,-0.5978,-0.6001,-0.5985,-0.5986,-0.5983,-0.6035,-0.6037,-0.6039,-0.604,0,-0.6859,-0.6821,-0.6781,-0.6727,-0.6692,-0.6645,-0.6593,-0.6579,-0.6479,-0.645,-0.6402,-0.6366,-0.6294,-0.6242,-0.6176,-0.6128,-0.6067,-0.6056,-0.6057,-0.608,-0.611,-0.6092,-0.5967,-0.6053,-0.6052,-0.6051,-0.605,-0.605,-0.6949,-0.6938,-0.6869,-0.6825,-0.6778,-0.6731,-0.671,-0.6648,-0.6608,-0.6544,-0.6494,-0.645,-0.6379,-0.6284,-0.624,-0.6202,-0.6173,-0.6176,-0.6176,-0.6178,-0.6187,-0.6117,-0.6189,-0.6189,-0.6188,-0.6188,-0.6188,0,-0.7051,-0.7002,-0.6964,-0.6894,-0.686,-0.6807,-0.6746,-0.672,-0.6683,-0.6623,-0.6579,-0.6523,-0.6471,-0.6391,-0.6333,-0.6317,-0.6287,-0.6305,-0.6304,-0.6294,-0.6216,-0.622,-0.633,-0.633,-0.633,-0.633,-0.633,-0.633,-0.71,-0.7078,-0.7031,-0.6983,-0.6933,-0.689,-0.686,-0.6815,-0.6767,-0.6709,-0.6666,-0.6615,-0.6545,-0.6481,-0.6431,-0.6408,-0.6389,-0.6415,-0.6384,-0.6313,-0.63,-0.6287,-0.629,-0.6413,-0.6413,-0.6464,-0.6464,-0.6465]},{"header":{"parameterUnit":"m.s-1","parameterCategory":1,"la1":30.2991,"la2":30.254,"lo1":-89.0895,"lo2":-89.0444,"dy":0.0017,"dx":0.0017,"nx":28,"ny":28,"refTime":"2024-08-20T03:00:00:Z","depth":0,"parameterNumber":3,"parameterNumberName":"V-component_of_WINDS"},"data":[0,0,0,0,0,0,0,0,0,0,0,0,0,0,0,0,0,0,0,0,0,0,0,0,0,0,0,0,0,0,0,0,0,0,0,0,0,0,0,0,0,0,0,0,0,0,0,0,0,0,0,0,0,0,0,0,0,0,-2.1614,-2.1616,0,-2.179,-2.1792,-2.1794,-2.186,-2.186,-2.1859,-2.1859,-2.2037,-2.2042,-2.2048,0,0,0,0,0,0,0,0,0,0,0,0,0,-2.1334,-2.1339,-2.1614,-2.1617,-2.1619,-2.179,-2.1792,-2.1794,-2.186,-2.186,-2.1859,-2.1858,-2.2035,-2.2042,-2.2048,0,0,0,0,0,0,0,0,0,0,0,0,0,-2.1477,-2.1341,-2.1614,-2.1672,-2.1679,-2.1789,-2.1792,-2.1795,-2.186,-2.186,-2.1859,-2.1858,-2.2033,-2.2041,-2.2049,-2.2114,0,0,-2.2073,-2.2076,0,0,0,0,0,0,0,0,-2.1469,-2.1488,-2.1661,-2.1668,-2.1676,-2.1802,-2.1759,-2.1902,-2.1861,-2.1792,-2.1859,-2.1858,-2.196,-2.1974,-2.2008,-2.2122,-2.213,-2.2074,-2.2078,-2.2082,-2.2084,0,0,0,0,0,0,0,-2.1459,-2.148,-2.1684,-2.1664,-2.1673,-2.1689,-2.1708,-2.1786,-2.1878,-2.1798,-2.1803,-2.1823,-2.1964,-2.2,-2.2013,-2.2132,-2.2073,-2.208,-2.2085,-2.2088,-2.2307,-2.2308,0,0,0,0,0,0,-2.144,-2.1472,-2.1678,-2.1689,-2.1569,-2.1695,-2.1716,-2.1763,-2.1877,-2.1894,-2.1823,-2.1825,-2.1987,-2.2004,-2.2019,-2.2102,-2.2082,-2.2089,-2.2094,-2.2305,-2.2307,-2.2308,0,0,0,0,0,0,-2.1434,-2.1458,-2.1671,-2.1582,-2.161,-2.17,-2.1752,-2.1767,-2.1804,-2.1897,-2.1913,-2.1844,-2.1987,-2.2008,-2.2089,-2.2109,-2.2093,-2.21,-2.2304,-2.2306,-2.2307,-2.2268,0,0,0,0,0,0,-2.1425,-2.1455,-2.1481,-2.1582,-2.1615,-2.1739,-2.1753,-2.1771,-2.1817,-2.1821,-2.1921,-2.1936,-2.1988,-2.2077,-2.2097,-2.212,-2.2106,-2.2303,-2.2305,-2.2307,-2.2268,-2.2268,-2.2268,0,0,0,0,0,-2.1415,-2.1463,-2.1482,-2.1506,-2.1649,-2.174,-2.1758,-2.1818,-2.1818,-2.1845,-2.1905,-2.1933,-2.2104,-2.2085,-2.2108,-2.2133,-2.2302,-2.2304,-2.2307,-2.2267,-2.2268,-2.2268,0,0,0,0,0,0,-2.1362,-2.1477,-2.15,-2.1582,-2.165,-2.1751,-2.1786,-2.1816,-2.1886,-2.1887,-2.1957,-2.1979,-2.2054,-2.2102,-2.2079,-2.2201,-2.2205,-2.2212,-2.2167,-2.2168,-2.2168,-2.2155,-2.2113,0,0,0,0,0,-2.1359,-2.1424,-2.1521,-2.1584,-2.1617,-2.1695,-2.1737,-2.1777,-2.185,-2.188,-2.1945,-2.2016,-2.2085,-2.2129,-2.2198,-2.2275,-2.2297,-2.2303,-2.2303,-2.2303,-2.2308,-2.2351,-2.2355,-2.2316,-2.2316,-2.2316,0,0,-2.1355,-2.1426,-2.1463,-2.1575,-2.1633,-2.1697,-2.1719,-2.1787,-2.1835,-2.189,-2.197,-2.2021,-2.2104,-2.2182,-2.2221,-2.2225,-2.2324,-2.2306,-2.2305,-2.2311,-2.2354,-2.2358,-2.2361,-2.2317,-2.2317,-2.2317,0,0,-2.1381,-2.1441,-2.15,-2.1557,-2.1645,-2.1696,-2.171,-2.1806,-2.1842,-2.1924,-2.1966,-2.2024,-2.2142,-2.2199,-2.2244,-2.2289,-2.2318,-2.231,-2.231,-2.2351,-2.2354,-2.2357,-2.2373,-2.2378,-2.2315,-2.2315,-2.2315,0,-2.1365,-2.1464,-2.1526,-2.1591,-2.1639,-2.1691,-2.1751,-2.1803,-2.1908,-2.194,-2.1943,-2.2092,-2.2152,-2.2244,-2.2255,-2.229,-2.2307,-2.2299,-2.2349,-2.2353,-2.2356,-2.2372,-2.2378,-2.2313,-2.2313,-2.2314,-2.2314,0,-2.1439,-2.1507,-2.1544,-2.1644,-2.1696,-2.1757,-2.1828,-2.1873,-2.1908,-2.1959,-2.2041,-2.2114,-2.2198,-2.2223,-2.2258,-2.2321,-2.232,-2.2335,-2.234,-2.2357,-2.2373,-2.238,-2.2311,-2.2311,-2.2312,-2.2312,0,0,-2.1436,-2.1569,-2.1582,-2.1627,-2.1727,-2.178,-2.1844,-2.1927,-2.1963,-2.2034,-2.2088,-2.2187,-2.2201,-2.2251,-2.2293,-2.2329,-2.2359,-2.234,-2.2343,-2.234,-2.2432,-2.2419,-2.2425,-2.2379,-2.2381,-2.2382,-2.2424,0,-2.1474,-2.1591,-2.1648,-2.1739,-2.1802,-2.1853,-2.1908,-2.1974,-2.2023,-2.2084,-2.2138,-2.2206,-2.222,-2.2251,-2.2289,-2.2348,-2.2379,-2.2345,-2.243,-2.2432,-2.2407,-2.2434,-2.2421,-2.2458,-2.2431,-2.2432,-2.2433,0,-2.1535,-2.1604,-2.1701,-2.1793,-2.1821,-2.187,-2.195,-2.2007,-2.2083,-2.2116,-2.2172,-2.2212,-2.228,-2.228,-2.2374,-2.235,-2.2388,-2.2422,-2.2425,-2.2435,-2.2433,-2.2443,-2.2471,-2.2476,-2.2444,-2.2443,-2.2442,0,-2.1521,-2.164,-2.1713,-2.175,-2.1859,-2.1892,-2.1939,-2.2014,-2.206,-2.2129,-2.216,-2.2236,-2.2278,-2.2336,-2.2395,-2.239,-2.2483,-2.2489,-2.2512,-2.2511,-2.2529,-2.2527,-2.2563,-2.2555,-2.2554,-2.2554,-2.2554,0,-2.1557,-2.1615,-2.1708,-2.1753,-2.1819,-2.1884,-2.1946,-2.1997,-2.2064,-2.2119,-2.2167,-2.2218,-2.2294,-2.2354,-2.2401,-2.2471,-2.249,-2.2518,-2.253,-2.2514,-2.251,-2.2539,-2.2538,-2.2556,-2.2556,-2.2555,-2.2555,0,-2.1554,-2.1619,-2.1702,-2.1798,-2.1823,-2.1867,-2.1949,-2.1994,-2.2045,-2.2114,-2.2134,-2.2214,-2.2287,-2.2353,-2.245,-2.2481,-2.2553,-2.2568,-2.2527,-2.2533,-2.2553,-2.255,-2.2608,-2.2619,-2.2603,-2.2603,-2.2603,0,-2.1572,-2.1618,-2.1718,-2.1758,-2.1804,-2.1869,-2.1915,-2.1981,-2.2027,-2.2117,-2.2151,-2.2228,-2.2293,-2.2407,-2.2473,-2.2547,-2.2564,-2.258,-2.2576,-2.2558,-2.2564,-2.256,-2.2565,-2.2579,-2.2579,-2.2579,-2.2578,0,-2.1598,-2.1628,-2.1693,-2.177,-2.1824,-2.1887,-2.1952,-2.1982,-2.206,-2.211,-2.2185,-2.2235,-2.2334,-2.2409,-2.249,-2.2538,-2.2571,-2.2579,-2.2588,-2.2572,-2.2546,-2.256,-2.2525,-2.2577,-2.2578,-2.2578,-2.2578,-2.2578,-2.1606,-2.1648,-2.1725,-2.1796,-2.1851,-2.191,-2.1957,-2.2014,-2.2078,-2.2163,-2.2198,-2.2274,-2.2349,-2.2462,-2.2509,-2.2569,-2.2576,-2.2589,-2.2592,-2.2595,-2.2591,-2.2537,-2.2584,-2.2585,-2.2585,-2.2585,-2.2585,0,-2.1633,-2.1685,-2.175,-2.1838,-2.1894,-2.192,-2.1993,-2.2038,-2.2104,-2.2171,-2.2233,-2.2319,-2.2392,-2.2464,-2.2541,-2.2575,-2.2592,-2.2593,-2.2591,-2.2601,-2.2582,-2.2566,-2.2578,-2.2578,-2.2578,-2.2578,-2.2578,-2.2578,-2.1654,-2.1726,-2.1765,-2.1864,-2.1916,-2.1991,-2.203,-2.2085,-2.2138,-2.2232,-2.2293,-2.2339,-2.2408,-2.249,-2.2558,-2.2577,-2.2603,-2.2599,-2.2623,-2.2603,-2.2603,-2.2603,-2.2588,-2.2605,-2.2605,-2.2637,-2.2638,-2.2638]}]]